Location: Rounton
(54.4000°N, 1.3500°W)
Time: 00:21:01
(UTC+01:00)

Vanguard 1 - Pass Details

Date: 26 February 2024
Orbit: 653 x 3825 km, 34.2° (Epoch: 22 April)

Event Time Altitude Azimuth Distance (km) Brightness Sun altitude
Rises 19:41:59 0° 223° (SW) 5,399 14.3 -19.2°
Reaches altitude 10° 19:45:30 10° 213° (SSW) 4,797 13.8 -19.7°
Maximum altitude 19:57:56 34° 156° (SSE) 4,310 12.9 -21.4°
Enters shadow 20:05:59 26° 123° (ESE) 5,243 13.1 -22.5°
Drops below altitude 10° 20:15:45 10° 103° (ESE) 6,862 - -23.9°
Sets 20:22:08 0° 96° (E) 7,970 - -24.7°
